FALCON 9 DEB (46802 NORAD) Tracking and Keplerian Element Data

This shows tracking and keplerian element data for the satellite.

Feedback or suggestion? Click here.




ElementValue
Catalog46802
NameFALCON 9 DEB
Epoch Orbit430
Epoch Day322.44978624
Epoch Year2020
RAAN38.342
Inclination53.0433
Eccentricity0.0006115
Argument of Perigee12.4276
Mean Anonmoly347.6918
Mean Motion16.36331458
Decay Rate0.04544793
L11 46802U 20074BR 20322.44978624 .04544793 12312-4 50513-3 0 9992
L22 46802 53.0433 38.3420 0006115 12.4276 347.6918 16.36331458 4300

Live tracking and technical data element details for FALCON 9 DEB (NORAD 46802). FALCON 9 DEB can be tracked NOW for your location showing map with azimuth and elevation plus other details from your city location.

Track the satellite on the map from your city or location and see movement details for azimuth, elevation, latitude, longitude, range, height, and movement on the map or in text.







IsCatalogInMostPopularTable: catalog: 46802, numindb: 6
Update: records affected: 1



GetName: 46802 FALCON 9 DEB

Hit Count: updated at: Tue, 24 Nov 2020 11:43:40 GMT